Location: Bailen
(14.1842°N, 120.7958°E)
Time: 18:38:47
(UTC+00:00)

SL-16 R/B - Pass Details

Date: 12 January 2026
Orbit: 985 x 1007 km, 99.8° (Epoch: 17 February)

Event Time Altitude Azimuth Distance (km) Brightness Sun altitude
Rises 20:11:38 0° 171° (S) 3,720 5.9 -31.3°
Reaches altitude 10° 20:14:07 10° 173° (S) 2,769 5.1 -30.7°
Enters shadow 20:19:28 62° 209° (SSW) 1,112 2.6 -29.5°
